Flag for Belgium Weather past 2 weeks in Leuven, Belgium

Now
37 °F

Clear.


Feels Like: 30 °F
Forecast: 36 / 45 °F
Wind: 10 mph from Southwest

Location: Brussels National Airport

Current Time: Mar 3, 2015 at 12:32:01 AM

Latest Report: Mar 2, 2015 at 11:50 PM


Visibility: 10 mi

Pressure: 30.04 "Hg

Humidity: 81%

Dew point: 32 °F

Location of LeuvenLocation

Historic Weather in Leuven — Graph

°F

Leuven temperature yesterday

Maximum temperature yesterday: 46 °F (at 12:20 PM)
Minimum temperature yesterday: 37 °F (at 2:20 PM)
Average temperature yesterday: 42 °F

Past Weeks' High & Low Weather Summary

 TemperatureHumidityPressure
High50 °F (Feb 23, 1:50 PM)100% (Feb 16, 2:50 AM)30.74 "Hg (Feb 16, 2:50 AM)
Low28 °F (Feb 16, 4:20 AM)50% (Feb 28, 3:20 PM)29.33 "Hg (Feb 23, 7:50 AM)
Average40 °F83%29.93 "Hg
* Reported Feb 15 11:20 PM — Mar 2 11:20 PM, Leuven, Weather by CustomWeather, © 2015

Note: Actual official high and low records may vary slightly from our data, if they occured in-between our weather recording intervals... More about our weather records

Advertising

Leuven weather history for previous 24 hours

 ConditionsComfort  
Time TempWeatherWind HumidityBarometerVisibility
11:20 PM
Mon, Mar 2
37 °FClear.12 mph75%30.01 "Hg10 mi
10:50 PM39 °FClear.12 mph75%30.01 "Hg10 mi
10:20 PM39 °FClear.13 mph70%30.01 "Hg10 mi
9:50 PM39 °FClear.15 mph70%29.98 "Hg10 mi
9:20 PM41 °FClear.15 mph66%29.98 "Hg10 mi
8:50 PM41 °FClear.17 mph66%29.95 "Hg10 mi
8:20 PM41 °FClear.17 mph61%29.95 "Hg10 mi
7:50 PM41 °FPassing clouds.14 mph57%29.92 "HgN/A
7:20 PM41 °FPassing clouds.15 mph57%29.92 "HgN/A
6:50 PM43 °FPassing clouds.17 mph57%29.89 "HgN/A
6:20 PM43 °FPartly sunny.23 mph57%29.89 "HgN/A
5:50 PM45 °FScattered showers. Partly sunny.20 mph53%29.86 "HgN/A
5:20 PM43 °FPassing clouds.23 mph53%29.83 "HgN/A
4:50 PM43 °FPassing clouds.23 mph53%29.83 "HgN/A
4:20 PM45 °FScattered clouds.20 mph53%29.80 "HgN/A
3:50 PM43 °FScattered clouds.23 mph57%29.80 "HgN/A
3:20 PM45 °FScattered clouds.10 mph76%29.77 "HgN/A
2:50 PM41 °FPartly sunny.12 mph81%29.74 "HgN/A
2:20 PM37 °FRain showers. Partly sunny.20 mph81%29.74 "Hg1 mi
1:50 PM43 °FScattered clouds.20 mph81%29.71 "HgN/A
1:20 PM43 °FSprinkles. Partly sunny.22 mph76%29.71 "HgN/A
12:50 PM46 °FPassing clouds.14 mph62%29.71 "HgN/A
12:20 PM46 °FPartly sunny.17 mph57%29.74 "HgN/A
11:50 AM45 °FScattered clouds.18 mph61%29.71 "HgN/A
11:20 AM45 °FScattered clouds.18 mph61%29.71 "HgN/A
10:50 AM45 °FScattered clouds.16 mph66%29.71 "HgN/A
10:20 AM43 °FPassing clouds.15 mph71%29.71 "HgN/A
9:50 AM43 °FPassing clouds.16 mph71%29.71 "HgN/A
9:20 AM41 °FPassing clouds.15 mph76%29.68 "HgN/A
8:50 AM41 °FSunny.14 mph76%29.68 "Hg10 mi
8:20 AM39 °FPassing clouds.12 mph81%29.68 "HgN/A
7:50 AM39 °FPassing clouds.10 mph81%29.68 "HgN/A
7:20 AM39 °FPassing clouds.9 mph81%29.65 "HgN/A
6:50 AM41 °FPassing clouds.10 mph76%29.65 "HgN/A
6:20 AM39 °FPassing clouds.9 mph87%29.62 "HgN/A
5:50 AM41 °FPassing clouds.12 mph81%29.62 "HgN/A
5:20 AM41 °FSprinkles. Passing clouds.10 mph81%29.59 "HgN/A
4:50 AM41 °FPassing clouds.12 mph81%29.59 "HgN/A
4:20 AM43 °FPassing clouds.14 mph71%29.59 "HgN/A
3:50 AM43 °FPassing clouds.13 mph76%29.59 "HgN/A
3:20 AM43 °FPassing clouds.15 mph76%29.59 "HgN/A
2:50 AM43 °FPassing clouds.18 mph76%29.59 "HgN/A
2:20 AM45 °FPassing clouds.21 mph71%29.56 "HgN/A
1:50 AM45 °FPassing clouds.20 mph71%29.56 "HgN/A
1:20 AM45 °FClear.20 mph71%29.53 "Hg10 mi
12:50 AM45 °FClear.17 mph76%29.53 "Hg10 mi
12:20 AM45 °FPassing clouds.22 mph76%29.50 "HgN/A
Weather by CustomWeather, © 2015

See weather overviewHow to use our weather pages